When you browse on this site, cookies collect data to enhance your experience and personalize the content and advertising you see.
Visit our Privacy Policy to learn more. By continuing to use the site, you agree to this use of cookies and data.
  • In Hungary
  • List of Countries
  • For 7 days
  • Water Temperature
  • Satellite Maps
  • Weather Map
  • News
  • Weather Widgets
  • user-avatar
    Login

    Hourly Weather Svoboda

    Today, 21 November, Wednesday

    Time Temperature Precipitation Wind Pressure Humidity
    00:00 -5°C° 0 mm 2 mps 727 mmHg 94%
    01:00 -5°C° 0 mm 2 mps 727 mmHg 93%
    02:00 -6°C° 0 mm 3 mps 726 mmHg 92%
    03:00 -5°C° 0 mm 3 mps 726 mmHg 92%
    04:00 -5°C° 0 mm 3 mps 725 mmHg 91%
    05:00 -5°C° 0 mm 3 mps 725 mmHg 90%
    06:00 -5°C° 0 mm 3 mps 724 mmHg 89%
    07:00 -5°C° 0 mm 4 mps 724 mmHg 88%
    08:00 -5°C° 0.1 mm 4 mps 723 mmHg 86%
    09:00 -6°C° 0.1 mm 5 mps 722 mmHg 83%
    10:00 -5°C° 0.1 mm 5 mps 722 mmHg 81%
    11:00 -5°C° 0.1 mm 5 mps 721 mmHg 80%
    12:00 -5°C° 0.1 mm 6 mps 720 mmHg 79%
    13:00 -5°C° 0.1 mm 6 mps 720 mmHg 78%
    14:00 -6°C° 0.3 mm 6 mps 719 mmHg 81%
    15:00 -6°C° 0.3 mm 5 mps 718 mmHg 83%
    16:00 -7°C° 0.3 mm 5 mps 717 mmHg 86%
    17:00 -7°C° 0.3 mm 5 mps 717 mmHg 86%
    18:00 -7°C° 0.3 mm 5 mps 716 mmHg 86%
    19:00 -7°C° 0.3 mm 5 mps 716 mmHg 86%
    20:00 -7°C° 0.2 mm 5 mps 715 mmHg 87%
    21:00 -8°C° 0.2 mm 4 mps 715 mmHg 87%
    22:00 -8°C° 0.2 mm 4 mps 714 mmHg 88%
    23:00 -8°C° 0.2 mm 4 mps 714 mmHg 88%

    Tomorrow, 22 November, Thursday

    Time Temperature Precipitation Wind Pressure Humidity
    00:00 -8°C° 0.2 mm 4 mps 714 mmHg 89%
    01:00 -7°C° 0.2 mm 4 mps 713 mmHg 89%
    02:00 -8°C° 0.3 mm 4 mps 714 mmHg 89%
    03:00 -8°C° 0.3 mm 5 mps 714 mmHg 89%
    04:00 -10°C° 0.3 mm 5 mps 714 mmHg 89%
    05:00 -10°C° 0.2 mm 5 mps 714 mmHg 88%
    06:00 -11°C° 0.2 mm 5 mps 714 mmHg 87%
    07:00 -12°C° 0.2 mm 5 mps 715 mmHg 87%
    08:00 -12°C° 0.1 mm 5 mps 715 mmHg 86%
    09:00 -12°C° 0.1 mm 4 mps 715 mmHg 85%
    10:00 -12°C° 0.1 mm 4 mps 716 mmHg 85%
    11:00 -12°C° 0.1 mm 4 mps 716 mmHg 84%
    12:00 -11°C° 0.1 mm 4 mps 716 mmHg 82%
    13:00 -10°C° 0.1 mm 3 mps 716 mmHg 81%
    14:00 -11°C° 0.1 mm 4 mps 716 mmHg 82%
    15:00 -11°C° 0.1 mm 4 mps 716 mmHg 82%
    16:00 -11°C° 0.1 mm 4 mps 716 mmHg 83%
    17:00 -12°C° 0 mm 4 mps 716 mmHg 85%
    18:00 -12°C° 0 mm 3 mps 716 mmHg 86%
    19:00 -12°C° 0 mm 3 mps 716 mmHg 88%
    20:00 -11°C° 0.1 mm 4 mps 715 mmHg 87%
    21:00 -11°C° 0.1 mm 4 mps 715 mmHg 86%
    22:00 -11°C° 0.1 mm 5 mps 715 mmHg 86%
    23:00 -11°C° 0.1 mm 5 mps 714 mmHg 85%

    Day after tomorrow, 23 November, Friday

    Time Temperature Precipitation Wind Pressure Humidity
    00:00 -11°C° 0.1 mm 5 mps 714 mmHg 85%
    01:00 -11°C° 0.1 mm 5 mps 714 mmHg 85%
    02:00 -11°C° 0.2 mm 5 mps 714 mmHg 85%
    03:00 -10°C° 0.2 mm 5 mps 713 mmHg 85%
    04:00 -10°C° 0.2 mm 5 mps 713 mmHg 85%
    05:00 -10°C° 0.1 mm 4 mps 713 mmHg 84%
    06:00 -10°C° 0.1 mm 4 mps 713 mmHg 84%
    07:00 -10°C° 0.1 mm 4 mps 712 mmHg 84%
    08:00 -10°C° 0.1 mm 4 mps 712 mmHg 82%
    09:00 -9°C° 0.1 mm 4 mps 712 mmHg 81%
    10:00 -9°C° 0.1 mm 4 mps 712 mmHg 79%
    11:00 -8°C° 0.1 mm 3 mps 712 mmHg 79%
    12:00 -7°C° 0.1 mm 3 mps 712 mmHg 78%
    13:00 -7°C° 0.1 mm 3 mps 712 mmHg 78%
    14:00 -7°C° 0.1 mm 2 mps 712 mmHg 81%
    15:00 -6°C° 0.1 mm 1 mps 712 mmHg 84%
    16:00 -7°C° 0.1 mm 1 mps 713 mmHg 88%
    17:00 -7°C° 0.1 mm 1 mps 713 mmHg 89%
    18:00 -7°C° 0.1 mm 0 mps 713 mmHg 90%
    19:00 -8°C° 0.1 mm 0 mps 714 mmHg 92%
    20:00 -8°C° 0.2 mm 1 mps 714 mmHg 93%
    21:00 -9°C° 0.2 mm 2 mps 715 mmHg 94%
    22:00 -9°C° 0.2 mm 2 mps 716 mmHg 95%
    23:00 -12°C° 0.2 mm 3 mps 716 mmHg 94%

    24 November, Saturday

    Time Temperature Precipitation Wind Pressure Humidity
    00:00 -12°C° 0.2 mm 4 mps 717 mmHg 93%
    01:00 -14°C° 0.2 mm 4 mps 718 mmHg 92%
    02:00 -15°C° 0.1 mm 4 mps 719 mmHg 91%
    03:00 -16°C° 0.1 mm 4 mps 720 mmHg 90%
    04:00 -17°C° 0.1 mm 4 mps 721 mmHg 90%
    05:00 -18°C° 0 mm 4 mps 722 mmHg 91%
    06:00 -19°C° 0 mm 3 mps 722 mmHg 92%
    07:00 -19°C° 0 mm 2 mps 723 mmHg 94%
    08:00 -19°C° 0 mm 3 mps 724 mmHg 92%
    09:00 -19°C° 0 mm 3 mps 725 mmHg 91%
    10:00 -18°C° 0 mm 3 mps 725 mmHg 90%
    11:00 -18°C° 0 mm 4 mps 726 mmHg 88%
    12:00 -17°C° 0 mm 4 mps 726 mmHg 86%
    13:00 -17°C° 0 mm 5 mps 726 mmHg 84%
    14:00 -15°C° 0.1 mm 5 mps 726 mmHg 85%
    15:00 -14°C° 0.1 mm 5 mps 726 mmHg 86%
    16:00 -14°C° 0.1 mm 5 mps 726 mmHg 87%
    17:00 -14°C° 0.1 mm 6 mps 726 mmHg 86%
    18:00 -13°C° 0.1 mm 7 mps 726 mmHg 86%
    19:00 -13°C° 0.1 mm 7 mps 726 mmHg 85%
    20:00 -13°C° 0.1 mm 7 mps 726 mmHg 84%
    21:00 -13°C° 0.1 mm 8 mps 726 mmHg 84%
    22:00 -13°C° 0.1 mm 8 mps 725 mmHg 83%
    23:00 -12°C° 0.1 mm 8 mps 725 mmHg 83%

    25 November, Sunday

    Time Temperature Precipitation Wind Pressure Humidity
    00:00 -12°C° 0.1 mm 8 mps 725 mmHg 82%
    01:00 -11°C° 0.1 mm 8 mps 725 mmHg 81%
    02:00 -11°C° 0.1 mm 8 mps 725 mmHg 82%
    03:00 -11°C° 0.1 mm 8 mps 725 mmHg 82%
    04:00 -11°C° 0.1 mm 7 mps 725 mmHg 82%
    05:00 -11°C° 0.1 mm 7 mps 725 mmHg 82%
    06:00 -11°C° 0.1 mm 7 mps 724 mmHg 82%
    07:00 -11°C° 0.1 mm 7 mps 724 mmHg 82%
    08:00 -11°C° 0.1 mm 7 mps 724 mmHg 82%
    09:00 -11°C° 0.1 mm 8 mps 724 mmHg 81%
    10:00 -11°C° 0.1 mm 8 mps 724 mmHg 81%
    11:00 -11°C° 0.1 mm 8 mps 724 mmHg 81%
    12:00 -10°C° 0.1 mm 8 mps 724 mmHg 82%
    13:00 -10°C° 0.1 mm 8 mps 723 mmHg 83%
    14:00 -10°C° 0.2 mm 8 mps 724 mmHg 83%
    15:00 -9°C° 0.2 mm 7 mps 724 mmHg 84%
    16:00 -8°C° 0.2 mm 7 mps 725 mmHg 85%
    17:00 -8°C° 0.1 mm 7 mps 725 mmHg 85%
    18:00 -8°C° 0.1 mm 6 mps 726 mmHg 85%
    19:00 -8°C° 0.1 mm 6 mps 727 mmHg 86%
    20:00 -8°C° 0 mm 5 mps 727 mmHg 87%
    21:00 -8°C° 0 mm 5 mps 728 mmHg 89%
    22:00 -8°C° 0 mm 4 mps 728 mmHg 90%
    23:00 -9°C° 0 mm 4 mps 729 mmHg 91%

    26 November, Monday

    Time Temperature Precipitation Wind Pressure Humidity
    00:00 -9°C° 0 mm 4 mps 729 mmHg 91%
    01:00 -8°C° 0 mm 3 mps 729 mmHg 92%
    02:00 -8°C° 0 mm 3 mps 730 mmHg 93%
    03:00 -8°C° 0 mm 2 mps 730 mmHg 93%
    04:00 -8°C° 0 mm 2 mps 730 mmHg 94%
    05:00 -8°C° 0 mm 2 mps 730 mmHg 94%
    06:00 -8°C° 0 mm 2 mps 729 mmHg 94%
    07:00 -8°C° 0 mm 1 mps 729 mmHg 93%
    08:00 -8°C° 0.1 mm 2 mps 729 mmHg 91%
    09:00 -7°C° 0.1 mm 2 mps 729 mmHg 90%
    10:00 -7°C° 0.1 mm 2 mps 729 mmHg 88%
    11:00 -7°C° 0.1 mm 3 mps 729 mmHg 87%
    12:00 -6°C° 0.1 mm 3 mps 729 mmHg 86%
    13:00 -5°C° 0.1 mm 3 mps 729 mmHg 86%
    14:00 -5°C° 0.1 mm 3 mps 729 mmHg 87%
    15:00 -4°C° 0.1 mm 2 mps 728 mmHg 89%
    16:00 -4°C° 0.1 mm 2 mps 728 mmHg 90%
    17:00 -5°C° 0 mm 2 mps 728 mmHg 90%
    18:00 -5°C° 0 mm 2 mps 728 mmHg 91%
    19:00 -6°C° 0 mm 3 mps 728 mmHg 91%
    20:00 -5°C° 0 mm 2 mps 727 mmHg 91%
    21:00 -6°C° 0 mm 2 mps 727 mmHg 91%
    22:00 -6°C° 0 mm 2 mps 727 mmHg 91%
    23:00 -6°C° 0 mm 2 mps 727 mmHg 91%
    Show more